Tracking 30743 objects as of 21-Jun-2025
HD Live streaming from Space Station
objects crossing your sky now

COSMOS 1388

Track COSMOS 1388 now!
10-day predictions
COSMOS 1388 is classified as:


NORAD ID: 13375
Int'l Code: 1982-073A
Perigee: 1,399.6 km
Apogee: 1,481.2 km
Inclination: 74.0 °
Period: 114.5 minutes
Semi major axis: 7811 km
RCS: 0.6948 m2 (medium)
Launch date: July 21, 1982
Source: Commonwealth of Independent States (former USSR) (CIS)
Launch site: PLESETSK MISSILE AND SPACE COMPLEX (PKMTR)
Your satellite tracking list
Your tracking list is empty




NASA's NSSDC Master Catalog

Two Line Element Set (TLE):
1 13375U 82073A   25171.68744160  .00000004  00000-0  12135-3 0  9990
2 13375  74.0129 146.0025 0052228 350.4611 182.7973 12.57501232970103
Source of the keplerian elements: AFSPC